Flag for U.S.A. Weather past 2 weeks in St. Croix Falls, Wisconsin, U.S.A.

Now
44 °F

Clear.


Feels Like: 40 °F
Forecast: 42 / 59 °F
Wind: 8 mph from North

Location: L O Simenstad Municipal Airport

Current Time: May 30, 2015 at 6:14:51 AM

Latest Report: May 30, 2015 at 5:55 AM


Visibility: 10 mi

Pressure: 30.18 "Hg

Humidity: 96%

Dew point: 43 °F

Location of St. Croix FallsLocation

Historic Weather in St. Croix Falls — Graph

°F

St. Croix Falls temperature yesterday

Maximum temperature yesterday: 71 °F (at 12:55 PM)
Minimum temperature yesterday: 53 °F (at 11:55 PM)
Average temperature yesterday: 63 °F

Past Weeks' High & Low Weather Summary

 TemperatureHumidityPressure
High84 °F (May 28, 2:55 PM)100% (May 15, 5:15 AM)30.46 "Hg (May 15, 5:15 AM)
Low32 °F (May 20, 3:15 AM)21% (May 21, 4:15 PM)29.58 "Hg (May 17, 7:35 PM)
Average58 °F78%30.02 "Hg
* Reported May 15 5:15 AM — May 30 5:15 AM, St. Croix Falls, Weather by CustomWeather, © 2015

Note: Actual official high and low records may vary slightly from our data, if they occured in-between our weather recording intervals... More about our weather records

Advertising

St. Croix Falls weather history for previous 24 hours

 ConditionsComfort  
Time TempWeatherWind HumidityBarometerVisibility
5:15 AM
Sat, May 30
45 °FClear.7 mph96%30.17 "Hg10 mi
4:55 AM45 °FClear.5 mph96%30.16 "Hg10 mi
4:35 AM46 °FPassing clouds.6 mph96%30.16 "Hg10 mi
4:15 AM46 °FPartly cloudy.9 mph94%30.15 "Hg10 mi
3:55 AM48 °FOvercast.7 mph91%30.14 "Hg10 mi
3:35 AM48 °FOvercast.10 mph92%30.14 "Hg10 mi
3:15 AM48 °FPassing clouds.8 mph93%30.13 "Hg10 mi
2:55 AM48 °FClear.8 mph94%30.13 "Hg10 mi
2:35 AM49 °FClear.7 mph91%30.13 "Hg10 mi
2:15 AM49 °FPassing clouds.12 mph90%30.12 "Hg10 mi
1:55 AM50 °FOvercast.9 mph90%30.12 "Hg10 mi
1:35 AM51 °FOvercast.13 mph89%30.11 "Hg10 mi
1:15 AM51 °FOvercast.9 mph89%30.11 "Hg10 mi
12:55 AM52 °FOvercast.13 mph89%30.11 "Hg10 mi
12:35 AM52 °FOvercast.10 mph92%30.11 "Hg10 mi
12:15 AM52 °FMostly cloudy.10 mph92%30.10 "Hg10 mi
11:55 PM
Fri, May 29
53 °FLight rain. Mostly cloudy.12 mph95%30.09 "Hg10 mi
11:35 PM53 °FLight rain. Overcast.12 mph97%30.09 "Hg10 mi
11:15 PM53 °FOvercast.12 mph99%30.07 "Hg10 mi
10:55 PM53 °FLight rain. Overcast.12 mph100%30.07 "Hg10 mi
10:15 PM54 °FLight rain. Mostly cloudy.14 mph100%30.06 "Hg10 mi
9:55 PM54 °FDrizzle. Low clouds.9 mph100%30.06 "Hg10 mi
9:35 PM54 °FLight rain. Low clouds.8 mph100%30.05 "Hg10 mi
9:15 PM54 °FLight rain. Low clouds.9 mph100%30.03 "Hg10 mi
8:55 PM55 °FLight rain. Low clouds.8 mph100%30.02 "Hg10 mi
8:35 PM55 °FLight rain. Low clouds.12 mph100%30.01 "Hg10 mi
8:15 PM56 °FDrizzle. Low clouds.10 mph100%30.00 "Hg10 mi
7:55 PM57 °FLight rain. Low clouds.10 mph100%29.99 "Hg10 mi
7:35 PM58 °FRain. Low clouds.14 mph100%29.98 "Hg10 mi
7:15 PM59 °FLight rain. Low clouds.10 mph100%29.97 "Hg10 mi
6:55 PM61 °FLight rain. Mostly cloudy.14 mph100%29.96 "Hg10 mi
6:35 PM61 °FLight rain. Mostly cloudy.14 mph100%29.96 "Hg10 mi
6:15 PM62 °FLight rain. Mostly cloudy.8 mph100%29.95 "Hg10 mi
5:55 PM62 °FLight rain. Overcast.13 mph100%29.95 "Hg10 mi
5:15 PM64 °FRain. Mostly cloudy.3 mph100%29.94 "Hg10 mi
4:55 PM64 °FLight rain. Cloudy.6 mph100%29.95 "Hg10 mi
4:15 PM64 °FRain. Cloudy.5 mph100%29.94 "Hg7 mi
3:15 PM64 °FRain. Cloudy.5 mph100%29.94 "Hg7 mi
2:55 PM64 °FHeavy rain. Cloudy.7 mph100%29.93 "Hg7 mi
2:15 PM64 °FHeavy rain. Cloudy.No wind100%29.93 "Hg2 mi
1:55 PM65 °FHeavy rain. Mostly cloudy.No wind100%29.93 "Hg1 mi
1:35 PM66 °FLight rain. More clouds than sun.5 mph100%29.93 "Hg10 mi
1:15 PM70 °FCloudy.7 mph95%29.92 "Hg10 mi
12:55 PM71 °FBroken clouds.7 mph93%29.91 "Hg10 mi
12:15 PM71 °FOvercast.5 mph92%29.92 "Hg10 mi
11:55 AM70 °FMostly cloudy.5 mph95%29.91 "Hg10 mi
11:35 AM69 °FLight rain. Mostly cloudy.No wind95%29.91 "Hg10 mi
11:15 AM69 °FMore clouds than sun.No wind96%29.92 "Hg10 mi
10:55 AM69 °FCloudy.3 mph98%29.92 "Hg10 mi
10:35 AM68 °FMostly cloudy.3 mph99%29.92 "Hg10 mi
10:15 AM68 °FOvercast.No wind100%29.92 "Hg10 mi
9:55 AM67 °FOvercast.3 mph100%29.92 "Hg10 mi
9:35 AM67 °FOvercast.7 mph99%29.91 "Hg10 mi
9:15 AM67 °FLow clouds.9 mph99%29.91 "Hg10 mi
8:55 AM66 °FLow clouds.5 mph100%29.91 "Hg10 mi
8:35 AM66 °FLow clouds.7 mph100%29.91 "Hg10 mi
8:15 AM65 °FLow clouds.9 mph100%29.91 "Hg10 mi
7:55 AM65 °FBroken clouds.7 mph100%29.90 "Hg10 mi
7:35 AM64 °FBroken clouds.6 mph100%29.90 "Hg10 mi
7:15 AM62 °FMore clouds than sun.7 mph100%29.91 "Hg10 mi
6:55 AM62 °FDrizzle. Mostly cloudy.6 mph100%29.91 "Hg7 mi
6:15 AM62 °FDrizzle. Mostly cloudy.5 mph100%29.91 "Hg7 mi
Weather by CustomWeather, © 2015

See weather overviewHow to use our weather pages